Location: *
(37.9500°N, 27.3666°E)
Time: 15:36:45
(UTC+00:00)

Cosmos 614 Rocket - Pass Details

Date: 24 October 2021
Orbit: 733 x 763 km, 74.1° (Epoch: 07 December)

Event Time Altitude Azimuth Distance (km) Brightness Sun altitude
Rises 17:01:15 0° 342° (NNW) 3,170 7.4 -20.4°
Reaches altitude 10° 17:03:36 10° 344° (NNW) 2,247 6.6 -20.9°
Maximum altitude 17:08:41 82° 72° (ENE) 752 3.8 -21.9°
Enters shadow 17:11:33 27° 157° (SSE) 1,412 5.1 -22.4°
